sat.trackr.live / text

‹ back to catalog

QIANFAN-181

NORAD 69398 · 2026-124S

PAYLOAD ACTIVE UNKNOWN

§ Identity

Operator
Country
PRC
Launch date
2026-06-04
Launch site
TAISC
Launch vehicle
Mass (kg)
RCS (m²)

External: N2YO · Heavens-Above · Gunter

§ Orbital elements

Epoch: 2026-09-20T04:39:21.879072Z

Period
106.59 min
Inclination
89.0072°
Eccentricity
0.0002176
Mean motion
13.51024044 rev/d
Perigee alt
1,066.9 km
Apogee alt
1,070.1 km
Semi-major
7,446.6 km
B*
1.4383e-4
RAAN
352.0803°
Arg perigee
105.7165°
Mean anomaly
254.4226°
Rev number
1,485

§ Raw data

QIANFAN-1811 69398U 26124S   26263.19400323  .00000105  00000+0  14383-3 0  99982 69398  89.0072 352.0803 0002176 105.7165 254.4226 13.51024044 14852

JSON: /api/v1/satellites/69398 · /tle

For live sub-satellite position, see the globe view (requires WebGL).

§ Visibility from observer

Set your observer location to see the next 7 days of passes ≥ 10°. The values pass through the URL so the page stays shareable.

No JS? Fill the form by hand. The geolocation button needs JavaScript.